User: anonymous   Login
Location: Sawmill Trailhead
(33.5800°N, 116.4497°W)
Time: 03:41:21
(UTC-07:00)
Language:

Uosat F - Orbit

View from above orbital plane
View from above orbital plane
View from above satellite
View from above satellite

Ground track
Ground track

The orbit data is extracted from the following two-line orbital elements,

1 21575U 91050B   18264.67695546 +.00000009 +00000-0 +17128-4 0  9996
2 21575 098.7225 296.2455 0007494 015.0830 345.0580 14.40856976427535
Epoch (UTC): 21 September 2018 16:14:48
Eccentricity: 0.0007494
inclination: 98.7225°
perigee height: 750 km
apogee height: 761 km
right ascension of ascending node: 296.2455°
argument of perigee: 15.0830°
revolutions per day: 14.40856976
mean anomaly at epoch: 345.0580°
orbit number at epoch: 42753

The dashed part of the orbit path shows where the satellite is in the earth's shadow,  

DLR